When you browse on this site, cookies collect data to enhance your experience and personalize the content and advertising you see.
Visit our Privacy Policy to learn more. By continuing to use the site, you agree to this use of cookies and data.

Hourly Weather Baden

Today, 5 July, Sunday

Time Temperature Precipitation Wind Pressure Humidity
00:00 +16°C° 0 mm 1 mps 727 mmHg 89%
01:00 +15°C° 0 mm 1 mps 727 mmHg 91%
02:00 +15°C° 0 mm 1 mps 727 mmHg 91%
03:00 +15°C° 0 mm 1 mps 727 mmHg 92%
04:00 +14°C° 0 mm 1 mps 726 mmHg 93%
05:00 +16°C° 0 mm 1 mps 726 mmHg 89%
06:00 +18°C° 0 mm 1 mps 726 mmHg 84%
07:00 +19°C° 0 mm 1 mps 726 mmHg 79%
08:00 +21°C° 0 mm 1 mps 726 mmHg 73%
09:00 +21°C° 0 mm 2 mps 726 mmHg 67%
10:00 +24°C° 0 mm 2 mps 726 mmHg 61%
11:00 +25°C° 0 mm 3 mps 726 mmHg 60%
12:00 +26°C° 0 mm 3 mps 726 mmHg 59%
13:00 +27°C° 0 mm 4 mps 726 mmHg 58%
14:00 +27°C° 0 mm 4 mps 726 mmHg 60%
15:00 +27°C° 0 mm 4 mps 725 mmHg 61%
16:00 +26°C° 0 mm 4 mps 725 mmHg 62%
17:00 +26°C° 0 mm 3 mps 725 mmHg 66%
18:00 +25°C° 0 mm 3 mps 725 mmHg 71%
19:00 +24°C° 0 mm 2 mps 725 mmHg 75%
20:00 +21°C° 0 mm 2 mps 725 mmHg 81%
21:00 +20°C° 0 mm 1 mps 725 mmHg 87%
22:00 +19°C° 0 mm 1 mps 725 mmHg 94%
23:00 +18°C° 0 mm 1 mps 725 mmHg 94%

Tomorrow, 6 July, Monday

Time Temperature Precipitation Wind Pressure Humidity
00:00 +18°C° 0 mm 1 mps 725 mmHg 95%
01:00 +18°C° 0 mm 1 mps 725 mmHg 96%
02:00 +18°C° 0 mm 1 mps 724 mmHg 96%
03:00 +16°C° 0 mm 1 mps 724 mmHg 96%
04:00 +16°C° 0 mm 1 mps 724 mmHg 96%
05:00 +18°C° 0 mm 1 mps 724 mmHg 94%
06:00 +19°C° 0 mm 1 mps 724 mmHg 91%
07:00 +20°C° 0 mm 1 mps 724 mmHg 89%
08:00 +19°C° 0.2 mm 2 mps 724 mmHg 86%
09:00 +20°C° 0.2 mm 3 mps 724 mmHg 84%
10:00 +20°C° 0.2 mm 4 mps 724 mmHg 82%
11:00 +21°C° 0.1 mm 4 mps 724 mmHg 75%
12:00 +21°C° 0.1 mm 5 mps 724 mmHg 68%
13:00 +21°C° 0.1 mm 6 mps 724 mmHg 61%
14:00 +21°C° 0 mm 5 mps 724 mmHg 59%
15:00 +21°C° 0 mm 5 mps 724 mmHg 58%
16:00 +20°C° 0 mm 4 mps 724 mmHg 56%
17:00 +20°C° 0 mm 4 mps 725 mmHg 59%
18:00 +19°C° 0 mm 3 mps 725 mmHg 62%
19:00 +18°C° 0 mm 3 mps 726 mmHg 65%
20:00 +16°C° 0 mm 2 mps 726 mmHg 69%
21:00 +14°C° 0 mm 1 mps 726 mmHg 74%
22:00 +12°C° 0 mm 1 mps 727 mmHg 78%
23:00 +11°C° 0 mm 1 mps 727 mmHg 82%

Day after tomorrow, 7 July, Tuesday

Time Temperature Precipitation Wind Pressure Humidity
00:00 +10°C° 0 mm 0 mps 727 mmHg 86%
01:00 +9°C° 0 mm 0 mps 727 mmHg 90%
02:00 +8°C° 0 mm 0 mps 726 mmHg 91%
03:00 +8°C° 0 mm 0 mps 726 mmHg 92%
04:00 +8°C° 0 mm 0 mps 726 mmHg 93%
05:00 +9°C° 0 mm 0 mps 727 mmHg 87%
06:00 +12°C° 0 mm 1 mps 727 mmHg 82%
07:00 +13°C° 0 mm 1 mps 727 mmHg 77%
08:00 +15°C° 0 mm 1 mps 727 mmHg 68%
09:00 +17°C° 0 mm 2 mps 727 mmHg 60%
10:00 +19°C° 0 mm 2 mps 726 mmHg 51%
11:00 +20°C° 0 mm 2 mps 726 mmHg 47%
12:00 +21°C° 0 mm 2 mps 726 mmHg 42%
13:00 +24°C° 0 mm 2 mps 726 mmHg 37%
14:00 +24°C° 0 mm 2 mps 725 mmHg 38%
15:00 +24°C° 0 mm 2 mps 725 mmHg 38%
16:00 +24°C° 0 mm 2 mps 725 mmHg 39%
17:00 +23°C° 0 mm 2 mps 725 mmHg 48%
18:00 +22°C° 0 mm 1 mps 725 mmHg 57%
19:00 +21°C° 0 mm 1 mps 725 mmHg 66%
20:00 +19°C° 0 mm 1 mps 725 mmHg 73%
21:00 +15°C° 0 mm 1 mps 725 mmHg 80%
22:00 +13°C° 0 mm 1 mps 726 mmHg 88%
23:00 +13°C° 0 mm 1 mps 725 mmHg 89%

8 July, Wednesday

Time Temperature Precipitation Wind Pressure Humidity
00:00 +11°C° 0 mm 0 mps 725 mmHg 89%
01:00 +11°C° 0 mm 0 mps 725 mmHg 90%
02:00 +10°C° 0 mm 0 mps 725 mmHg 91%
03:00 +10°C° 0 mm 0 mps 724 mmHg 91%
04:00 +9°C° 0 mm 0 mps 724 mmHg 91%
05:00 +11°C° 0 mm 0 mps 724 mmHg 87%
06:00 +12°C° 0 mm 0 mps 725 mmHg 82%
07:00 +14°C° 0 mm 0 mps 725 mmHg 77%
08:00 +18°C° 0 mm 1 mps 725 mmHg 68%
09:00 +21°C° 0 mm 1 mps 725 mmHg 58%
10:00 +23°C° 0 mm 2 mps 726 mmHg 49%
11:00 +24°C° 0 mm 2 mps 726 mmHg 45%
12:00 +25°C° 0 mm 2 mps 725 mmHg 40%
13:00 +27°C° 0 mm 3 mps 725 mmHg 36%
14:00 +27°C° 0 mm 3 mps 725 mmHg 38%
15:00 +27°C° 0 mm 3 mps 725 mmHg 40%
16:00 +27°C° 0 mm 3 mps 725 mmHg 42%
17:00 +26°C° 0 mm 2 mps 726 mmHg 51%
18:00 +24°C° 0 mm 2 mps 726 mmHg 60%
19:00 +23°C° 0 mm 1 mps 726 mmHg 69%
20:00 +21°C° 0 mm 1 mps 726 mmHg 76%
21:00 +19°C° 0 mm 1 mps 726 mmHg 83%
22:00 +16°C° 0 mm 1 mps 726 mmHg 90%
23:00 +15°C° 0 mm 1 mps 726 mmHg 92%

9 July, Thursday

Time Temperature Precipitation Wind Pressure Humidity
00:00 +15°C° 0 mm 1 mps 726 mmHg 93%
01:00 +14°C° 0 mm 1 mps 726 mmHg 94%
02:00 +14°C° 0 mm 1 mps 726 mmHg 94%
03:00 +12°C° 0 mm 0 mps 725 mmHg 94%
04:00 +12°C° 0 mm 0 mps 725 mmHg 94%
05:00 +13°C° 0 mm 0 mps 725 mmHg 90%
06:00 +14°C° 0 mm 0 mps 725 mmHg 86%
07:00 +15°C° 0 mm 0 mps 726 mmHg 82%
08:00 +18°C° 0 mm 0 mps 726 mmHg 75%
09:00 +22°C° 0 mm 1 mps 726 mmHg 67%
10:00 +24°C° 0 mm 1 mps 726 mmHg 59%
11:00 +26°C° 0 mm 1 mps 726 mmHg 55%
12:00 +27°C° 0 mm 1 mps 726 mmHg 50%
13:00 +29°C° 0 mm 1 mps 725 mmHg 46%
14:00 +28°C° 0 mm 1 mps 725 mmHg 45%
15:00 +28°C° 0 mm 1 mps 725 mmHg 44%
16:00 +28°C° 0 mm 2 mps 725 mmHg 43%
17:00 +27°C° 0 mm 1 mps 725 mmHg 52%
18:00 +25°C° 0 mm 1 mps 724 mmHg 61%
19:00 +24°C° 0 mm 1 mps 724 mmHg 70%
20:00 +22°C° 0 mm 1 mps 724 mmHg 74%
21:00 +20°C° 0 mm 1 mps 724 mmHg 79%
22:00 +18°C° 0 mm 1 mps 725 mmHg 83%
23:00 +16°C° 0 mm 0 mps 724 mmHg 85%

10 July, Friday

Time Temperature Precipitation Wind Pressure Humidity
00:00 +15°C° 0 mm 0 mps 724 mmHg 87%
01:00 +15°C° 0 mm 0 mps 724 mmHg 89%
02:00 +14°C° 0 mm 0 mps 723 mmHg 90%
03:00 +14°C° 0 mm 0 mps 723 mmHg 91%
04:00 +14°C° 0 mm 0 mps 723 mmHg 92%
05:00 +15°C° 0 mm 0 mps 723 mmHg 88%
06:00 +16°C° 0 mm 0 mps 723 mmHg 84%
07:00 +18°C° 0 mm 0 mps 723 mmHg 80%
08:00 +22°C° 0 mm 1 mps 723 mmHg 71%
09:00 +24°C° 0 mm 2 mps 724 mmHg 61%
10:00 +26°C° 0 mm 2 mps 724 mmHg 52%
11:00 +27°C° 0 mm 3 mps 724 mmHg 49%
12:00 +27°C° 0 mm 3 mps 723 mmHg 46%
13:00 +28°C° 0 mm 4 mps 723 mmHg 42%
14:00 +28°C° 0 mm 4 mps 723 mmHg 43%
15:00 +28°C° 0 mm 4 mps 723 mmHg 43%
16:00 +28°C° 0 mm 4 mps 723 mmHg 43%
17:00 +27°C° 0 mm 3 mps 723 mmHg 51%
18:00 +25°C° 0 mm 3 mps 723 mmHg 59%
19:00 +24°C° 0 mm 2 mps 724 mmHg 67%
20:00 +21°C° 0 mm 2 mps 724 mmHg 74%
21:00 +21°C° 0 mm 1 mps 724 mmHg 81%
22:00 +19°C° 0 mm 1 mps 725 mmHg 88%
23:00 +18°C° 0 mm 1 mps 724 mmHg 90%
Show more